Location: La Capelle
(44.7807°N, 2.4361°E)
Time: 19:02:11
(UTC+00:00)

Daily predictions for brighter satellites

Satellite Brightness Start Highest point End
(mag) Time Altitude Azimuth Time Altitude Azimuth Time Altitude Azimuth
SWARM A 4.5 16:46:40 10° N 16:50:00 74° W 16:53:17 10° S
Landsat 7 4.2 16:48:56 10° SE 16:53:15 39° ENE 16:57:34 10° N
Cosmos 1763 Rocket 3.7 16:48:44 10° N 16:53:47 48° ENE 16:58:44 10° SE
SL-16 R/B 2.8 16:47:57 10° NNE 16:54:14 78° WNW 17:00:27 10° SSW
SAR-Lupe-5 4.5 16:53:27 10° N 16:56:04 74° WNW 16:58:44 10° SSW
Cosmos 1140 Rocket 3.7 16:52:56 10° SSW 16:58:06 77° WNW 17:03:17 10° NNE
RESURS DK-1 2.6 16:55:30 10° NNW 16:59:20 43° ENE 17:03:09 10° SE
Timation 1 Rocket 4.5 16:53:31 10° NNW 16:59:21 52° ENE 17:05:08 10° SE
Aureole 3 Rocket 3.5 16:57:06 10° SE 16:59:30 21° E 17:02:01 10° NE
CZ-4C R/B 3.9 16:56:47 10° WNW 17:00:16 19° NNW 17:04:22 10° NNE
UNK 3.7 17:02:30 10° NNE 17:07:08 80° ESE 17:11:44 10° S
Meteor 1-28 Rocket 3.9 17:03:55 10° N 17:07:12 49° WNW 17:10:27 10° SSW
Cosmos 1400 Rocket 4.2 17:06:21 10° SE 17:08:52 17° E 17:11:08 11° NE
SJ-12 3.9 17:05:55 10° SSE 17:09:36 50° ENE 17:13:17 10° N
Meteor 2-12 Rocket 4.4 17:04:25 10° N 17:10:28 61° ENE 17:16:26 10° SSE
Okean 2 Rocket 4.2 17:12:53 10° SE 17:16:14 22° E 17:19:36 10° NE
SAR-Lupe-3 3.9 17:14:19 10° NNE 17:16:54 48° ESE 17:19:27 10° S
Helios 1A Rocket 4.2 17:16:48 14° E 17:17:05 15° E 17:19:03 10° SE
CORIOLIS 4.2 17:13:46 10° SSE 17:19:08 83° WSW 17:24:32 10° NNW
IRS-1C 4.1 17:15:20 10° SSE 17:20:39 80° ENE 17:25:59 10° NNW
SL-12 R/B(2) 4.3 17:16:59 10° SSW 17:24:51 87° SE 17:34:30 10° NE
Thor Agena Rocket 4.5 17:22:44 10° S 17:27:53 54° W 17:33:03 10° NNW
Cosmos 1943 Rocket 2.2 17:22:56 10° SSW 17:28:34 88° ESE 17:34:11 10° NNE
COSMO-SKYMED 1 3.5 17:26:49 16° NE 17:29:04 24° E 17:32:25 10° SSE
Timation 2 Rocket 4.2 17:22:58 10° SSW 17:29:51 88° WNW 17:36:45 10° NNE
Cosmos 2251 Rocket 3.5 17:27:26 10° S 17:32:37 61° ESE 17:37:52 10° NNE
Cosmos 841 Rocket 4.2 17:29:47 10° N 17:34:27 31° ENE 17:38:54 11° ESE
Cosmos 2058 2.9 17:31:09 10° N 17:35:03 52° E 17:38:56 10° SSE
BREEZE-M DEB (TANK) 2.3 17:34:18 10° W 17:36:44 63° NNW 17:39:49 20° ENE
ATLAS 2AS CENTAUR R/B 3.8 17:34:04 10° NNW 17:39:28 24° NNE 17:42:14 19° ENE
Cosmos 2082 Rocket 2.2 17:34:07 10° NNW 17:39:42 62° ENE 17:45:14 10° SE
Cosmos 2278 Rocket 2.3 17:36:25 10° SSW 17:42:04 78° WNW 17:47:46 10° NNE
IRAS Rocket 4.5 17:37:02 10° SE 17:42:18 46° ENE 17:47:33 10° N
MOS 1 Rocket 3.0 17:40:06 10° SSE 17:44:23 75° ENE 17:48:54 10° N
Cosmos 1602 2.9 17:43:14 10° N 17:46:17 79° E 17:49:20 10° SSE
AQUARIUS 4.3 17:43:16 10° S 17:47:39 76° WSW 17:52:06 10° NNW
Cosmos 1464 Rocket 4.0 17:42:26 10° S 17:48:38 64° E 17:54:47 10° NNE
Cosmos 468 Rocket 3.9 17:43:44 10° NNW 17:48:57 77° ENE 17:54:05 10° SSE
ARIANE 5 R/B 3.2 17:44:29 10° S 17:49:22 56° W 17:54:18 10° NNW
CZ-2D R/B 3.5 17:46:10 10° SSE 17:50:11 56° ENE 17:54:20 10° N
Cosmos 2369 Rocket 3.8 17:48:15 10° SE 17:50:09 15° ESE 17:50:09 15° ESE
USA 215 3.5 17:47:45 10° SE 17:54:15 72° SW 18:00:49 10° NW
ATLAS 5 CENTAUR R/B 4.3 17:51:37 10° WNW 17:55:28 25° WSW 17:59:57 10° S
PSLV R/B 3.6 17:52:11 10° SE 17:56:02 45° ENE 17:59:53 10° N
Cosmos 1862 2.9 17:53:50 10° N 17:57:28 69° E 18:01:05 10° SSE
Geosat FO 3.8 17:57:42 52° SE 17:58:15 74° ENE 18:01:07 10° NNW
Cosmos 2151 Rocket 3.5 17:54:49 10° S 17:59:17 79° E 18:03:48 10° N
Cosmos 1190 Rocket 4.0 17:55:07 10° SSW 18:00:24 89° ESE 18:05:26 12° NNE
Cosmos 2034 Rocket 4.0 17:56:37 10° SSE 18:02:36 54° E 18:08:41 10° NNE
ISS -2.6 18:00:11 10° W 18:03:15 33° NNW 18:03:52 31° N
Cosmos 676 Rocket 4.0 17:58:20 10° S 18:03:32 59° ESE 18:06:42 23° NE
Cosmos 1812 3.6 18:00:56 10° SSW 18:03:38 35° WNW 18:06:20 10° N
Okean 1 Rocket 3.0 18:01:39 10° S 18:05:59 59° E 18:08:24 25° NNE
Cosmos 1656 Rocket 3.9 18:00:57 10° S 18:06:10 44° ESE 18:08:00 33° ENE
SKYMED 2 3.5 18:04:21 10° NNE 18:08:43 87° WNW 18:13:04 10° SSW
Sich 1 Rocket 3.5 18:07:13 10° S 18:11:43 70° E 18:14:56 19° NNE
USA 281 3.9 18:11:29 29° ENE 18:12:02 30° NE 18:17:34 10° N
Cosmos 1954 Rocket 4.0 18:07:33 10° SSW 18:12:50 88° WNW 18:16:53 17° NNE
COSMOS 2406 3.1 18:09:43 10° NNW 18:15:23 65° ENE 18:19:01 23° SE
BlueWalker 3 3.0 18:13:12 10° SSW 18:15:40 30° SSE 18:15:40 30° SSE
SL-19 R/B 3.9 18:12:17 10° SSE 18:17:29 79° ENE 18:22:43 10° NNW
Cosmos 1092 Rocket 4.1 18:11:35 10° N 18:17:36 48° ENE 18:23:32 10° SSE
Cosmos 968 Rocket 4.0 18:16:28 10° S 18:20:21 37° SE 18:20:21 37° SE
SJ 16-02 1.6 18:17:50 10° SSW 18:22:07 64° WNW 18:24:28 26° N
Cosmos 2026 Rocket 3.9 18:16:38 10° N 18:22:39 58° ENE 18:28:42 10° SSE
YAOGAN 1 2.4 18:18:59 10° SSE 18:23:14 86° WSW 18:27:31 10° NNW
Cosmos 44 Rocket 4.5 18:18:48 10° WSW 18:23:17 38° NW 18:26:14 19° NNE
SPOT 1/Viking Rocket 3.9 18:19:49 10° S 18:24:57 66° W 18:30:08 10° NNW
Cosmos 2344 3.9 18:25:19 10° NW 18:33:14 64° NE 18:38:34 31° ESE
Spot 4 Rocket 4.4 18:30:39 10° S 18:35:41 62° WSW 18:40:46 10° NNW
Resurs 1-3 3.9 18:33:30 10° S 18:37:46 64° W 18:42:03 10° NNW
DELTA 2 R/B (1) 4.4 18:33:01 10° SW 18:38:01 35° SSE 18:38:13 35° SSE
Meteor 2-3 Rocket 3.6 18:32:50 10° N 18:38:34 84° E 18:44:11 10° SSE
Cosmos 1400 Rocket 4.3 18:40:35 10° SW 18:44:04 33° WNW 18:45:47 22° NNW
Cosmos 304 Rocket 4.5 18:42:23 10° SW 18:46:58 50° WNW 18:48:46 33° N
Cosmos 371 Rocket 4.0 18:44:09 10° SW 18:48:49 51° WNW 18:50:35 34° N
Helios 1A Rocket 4.2 18:50:27 31° W 18:50:27 31° W 18:52:56 10° SW
CZ-4C R/B 4.5 18:48:18 10° NNW 18:51:05 13° N 18:51:49 13° NNE
Cosmos 1627 Rocket 4.4 18:49:15 10° N 18:55:24 84° W 19:01:35 10° S
Resurs 01 Rocket 4.2 19:07:36 12° NNW 19:07:36 12° NNW 19:07:56 10° NNW
COSMO-SKYMED 1 4.2 19:03:11 26° NW 19:04:24 31° WNW 19:08:01 10° SW
Geosat 4.4 19:05:27 58° NW 19:05:27 58° NW 19:09:31 10° NNW
BREEZE-M DEB (TANK) 4.2 19:00:57 10° WNW 19:12:11 60° SSW 19:12:27 59° SSW
BREEZE-M DEB (TANK) 4.2 19:08:33 10° W 19:11:47 57° NNW 19:11:47 57° NNW
Cosmos 1943 Rocket 4.5 19:09:15 10° W 19:13:03 18° NW 19:16:48 10° N
ATLAS 2AS CENTAUR R/B 3.1 19:24:41 10° NW 19:29:41 51° NNW 19:29:41 51° NNW
Cosmos 1634 Rocket 4.5 19:28:12 10° SSW 19:34:21 57° WNW 19:34:50 55° WNW
Cosmos 2369 Rocket 3.8 19:29:32 10° SSW 19:31:59 27° SW 19:31:59 27° SW
USA 281 4.2 19:58:22 42° NW 19:58:22 42° NW 20:02:39 10° NNW
